ROA9721 SVMG-SVCN

Flight info

Callsign ROA9721
Flight time N/A
Altitude 23000
Route ESPEP SILED DCT MUN DCT GNA/N0443F380 DCT RAVIE
Aircraft B737/M-SDE2E3FGHIRWXY/LB1

Departure

Time 2026-04-23 14:34
Airport Del Caribe Santiago Mariño International Airport (SVMG)

Arrival

Time N/A
Airport Canaima Airport (SVCN)
Time Latitude Longitude Altitude Speed Heading
2026-04-23 14:14 10.91560 -63.96976 62 ft 0 kts 348°
2026-04-23 14:21 10.91558 -63.96976 60 ft 3 kts 348°
2026-04-23 14:22 10.91532 -63.96970 60 ft 4 kts 348°
2026-04-23 14:22 10.91510 -63.96966 58 ft 3 kts 347°
2026-04-23 14:22 10.91493 -63.96957 60 ft 4 kts 274°
2026-04-23 14:22 10.91496 -63.96933 57 ft 4 kts 257°
2026-04-23 14:23 10.91498 -63.96928 56 ft 1 kts 257°
2026-04-23 14:27 10.91496 -63.96934 60 ft 2 kts 256°
2026-04-23 14:27 10.91490 -63.96959 57 ft 5 kts 257°
2026-04-23 14:27 10.91473 -63.97001 58 ft 8 kts 227°
2026-04-23 14:28 10.91414 -63.97015 57 ft 10 kts 173°
2026-04-23 14:28 10.91359 -63.97047 54 ft 11 kts 251°
2026-04-23 14:28 10.91341 -63.97131 61 ft 13 kts 258°
2026-04-23 14:28 10.91320 -63.97231 53 ft 16 kts 258°
2026-04-23 14:29 10.91297 -63.97348 60 ft 18 kts 258°
2026-04-23 14:29 10.91276 -63.97445 56 ft 14 kts 258°
2026-04-23 14:29 10.91253 -63.97552 59 ft 17 kts 258°
2026-04-23 14:29 10.91235 -63.97649 55 ft 14 kts 258°
2026-04-23 14:30 10.91212 -63.97758 57 ft 17 kts 258°
2026-04-23 14:30 10.91184 -63.97890 57 ft 20 kts 258°
2026-04-23 14:30 10.91169 -63.97969 54 ft 11 kts 259°
2026-04-23 14:30 10.91152 -63.98048 58 ft 12 kts 258°
2026-04-23 14:31 10.91141 -63.98104 59 ft 2 kts 258°
2026-04-23 14:31 10.91138 -63.98117 59 ft 4 kts 258°
2026-04-23 14:32 10.91121 -63.98141 58 ft 5 kts 205°
2026-04-23 14:32 10.91086 -63.98136 61 ft 5 kts 168°
2026-04-23 14:32 10.91052 -63.98127 66 ft 5 kts 163°
2026-04-23 14:32 10.91038 -63.98120 69 ft 0 kts 148°
2026-04-23 14:33 10.91033 -63.98117 70 ft 4 kts 144°
2026-04-23 14:33 10.91010 -63.98087 74 ft 10 kts 119°
2026-04-23 14:33 10.90984 -63.98017 75 ft 7 kts 86°
2026-04-23 14:34 10.90997 -63.97951 73 ft 15 kts 78°
2026-04-23 14:34 10.91058 -63.97659 71 ft 80 kts 78°
2026-04-23 14:34 10.91219 -63.96874 72 ft 142 kts 78°
2026-04-23 14:34 10.91446 -63.95895 747 ft 139 kts 76°
2026-04-23 14:35 10.91600 -63.94908 1467 ft 147 kts 98°
2026-04-23 14:35 10.91236 -63.93920 2031 ft 160 kts 119°
2026-04-23 14:35 10.90313 -63.93112 2410 ft 195 kts 152°
2026-04-23 14:35 10.88885 -63.92773 2693 ft 234 kts 173°
2026-04-23 14:36 10.87151 -63.92621 3026 ft 261 kts 173°
2026-04-23 14:36 10.85395 -63.92163 3779 ft 265 kts 149°
2026-04-23 14:36 10.83861 -63.91116 4645 ft 268 kts 144°
2026-04-23 14:36 10.82334 -63.89996 5487 ft 272 kts 144°
2026-04-23 14:37 10.80786 -63.88861 6408 ft 275 kts 144°
2026-04-23 14:37 10.79217 -63.87721 7266 ft 280 kts 145°
2026-04-23 14:37 10.77615 -63.86568 8167 ft 284 kts 145°
2026-04-23 14:37 10.75986 -63.85403 9110 ft 289 kts 146°
2026-04-23 14:38 10.74318 -63.84217 10046 ft 294 kts 146°
2026-04-23 14:38 10.73191 -63.83418 10518 ft 303 kts 146°
2026-04-23 14:38 10.70768 -63.81705 11079 ft 331 kts 146°
2026-04-23 14:38 10.68852 -63.80352 11947 ft 336 kts 146°
2026-04-23 14:39 10.66926 -63.78991 12892 ft 339 kts 147°
2026-04-23 14:39 10.65640 -63.78083 13475 ft 342 kts 147°
2026-04-23 14:39 10.63661 -63.76687 14281 ft 347 kts 147°
2026-04-23 14:39 10.61665 -63.75279 15092 ft 351 kts 146°
2026-04-23 14:40 10.59648 -63.73856 15898 ft 355 kts 146°
2026-04-23 14:40 10.57605 -63.72415 16713 ft 359 kts 146°
2026-04-23 14:40 10.55544 -63.70964 17493 ft 363 kts 146°
2026-04-23 14:40 10.53447 -63.69506 18249 ft 367 kts 146°
2026-04-23 14:41 10.51327 -63.68049 18986 ft 368 kts 146°
2026-04-23 14:41 10.49180 -63.66580 19570 ft 375 kts 146°
2026-04-23 14:41 10.47028 -63.65107 20161 ft 379 kts 146°
2026-04-23 14:41 10.44840 -63.63609 20917 ft 380 kts 146°
2026-04-23 14:42 10.42634 -63.62097 21540 ft 384 kts 146°
2026-04-23 14:42 10.40407 -63.60570 22129 ft 389 kts 146°
2026-04-23 14:42 10.38145 -63.59018 22700 ft 394 kts 146°
2026-04-23 14:42 10.35862 -63.57452 23012 ft 395 kts 146°
2026-04-23 14:43 10.33590 -63.55893 23014 ft 394 kts 146°
2026-04-23 14:43 10.31305 -63.54325 23027 ft 398 kts 146°
2026-04-23 14:43 10.29000 -63.52744 23030 ft 400 kts 146°
2026-04-23 14:43 10.26697 -63.51165 23025 ft 399 kts 146°
2026-04-23 14:44 10.24405 -63.49593 23016 ft 397 kts 146°
2026-04-23 14:44 10.22117 -63.48024 23017 ft 397 kts 146°
2026-04-23 14:44 10.21995 -63.47940 23014 ft 397 kts 146°
2026-04-23 14:45 10.21434 -63.47556 23018 ft 397 kts 146°
2026-04-23 14:45 10.20564 -63.46960 23017 ft 397 kts 146°
2026-04-23 14:46 10.18277 -63.45392 23013 ft 396 kts 146°
2026-04-23 14:46 10.15989 -63.43824 23010 ft 397 kts 146°
2026-04-23 14:46 10.13700 -63.42256 23020 ft 397 kts 146°
2026-04-23 14:46 10.11405 -63.40684 23006 ft 398 kts 147°
2026-04-23 14:47 10.09108 -63.39111 23017 ft 398 kts 147°
2026-04-23 14:47 10.06808 -63.37535 23012 ft 399 kts 147°
2026-04-23 14:47 10.04507 -63.35960 23002 ft 400 kts 147°
2026-04-23 14:47 10.02200 -63.34381 23005 ft 400 kts 147°
2026-04-23 14:48 9.99890 -63.32800 23007 ft 400 kts 147°
2026-04-23 14:48 9.97604 -63.31236 23000 ft 401 kts 147°
2026-04-23 14:48 9.95293 -63.29654 23002 ft 401 kts 147°
2026-04-23 14:48 9.92976 -63.28070 23003 ft 401 kts 146°
2026-04-23 14:49 9.90664 -63.26488 23005 ft 401 kts 147°
2026-04-23 14:49 9.88345 -63.24902 23000 ft 401 kts 147°
2026-04-23 14:49 9.86034 -63.23322 22998 ft 400 kts 147°
2026-04-23 14:49 9.83729 -63.21745 22990 ft 399 kts 147°
2026-04-23 14:50 9.81423 -63.20168 22986 ft 399 kts 147°
2026-04-23 14:50 9.79126 -63.18599 22987 ft 398 kts 147°
2026-04-23 14:50 9.76828 -63.17029 22988 ft 398 kts 147°
2026-04-23 14:50 9.74460 -63.15581 22984 ft 397 kts 154°
2026-04-23 14:51 9.71902 -63.14547 22982 ft 396 kts 164°
2026-04-23 14:51 9.69247 -63.13793 22982 ft 396 kts 165°
2026-04-23 14:51 9.66582 -63.13076 22983 ft 397 kts 166°
2026-04-23 14:51 9.63911 -63.12365 22978 ft 398 kts 166°
2026-04-23 14:52 9.61267 -63.11658 22982 ft 399 kts 166°
2026-04-23 14:52 9.58553 -63.10924 22986 ft 399 kts 165°
2026-04-23 14:52 9.55900 -63.10200 22983 ft 400 kts 165°
2026-04-23 14:52 9.53214 -63.09462 22982 ft 400 kts 165°
2026-04-23 14:53 9.50521 -63.08720 22977 ft 400 kts 165°
2026-04-23 14:53 9.47833 -63.07977 22979 ft 400 kts 165°
2026-04-23 14:53 9.45144 -63.07234 22978 ft 400 kts 165°
2026-04-23 14:53 9.42459 -63.06491 22978 ft 400 kts 165°
2026-04-23 14:54 9.39771 -63.05748 22987 ft 400 kts 166°
2026-04-23 14:54 9.37085 -63.05005 22983 ft 400 kts 166°
2026-04-23 14:54 9.34397 -63.04262 22982 ft 400 kts 166°
2026-04-23 14:54 9.31710 -63.03519 22982 ft 400 kts 165°
2026-04-23 14:55 9.29023 -63.02777 22979 ft 400 kts 165°
2026-04-23 14:55 9.26335 -63.02034 22989 ft 400 kts 166°
2026-04-23 14:55 9.23648 -63.01292 22985 ft 400 kts 166°
2026-04-23 14:55 9.20965 -63.00551 22985 ft 400 kts 165°
2026-04-23 14:56 9.18284 -62.99810 22977 ft 400 kts 165°
2026-04-23 14:56 9.15602 -62.99070 22982 ft 399 kts 165°
2026-04-23 14:56 9.12915 -62.98328 22981 ft 400 kts 165°
2026-04-23 14:56 9.10233 -62.97588 22984 ft 400 kts 166°
2026-04-23 14:57 9.07549 -62.96847 22977 ft 400 kts 165°
2026-04-23 14:57 9.04860 -62.96105 22988 ft 400 kts 166°
2026-04-23 14:57 9.02204 -62.95373 22980 ft 401 kts 165°
2026-04-23 14:57 8.99508 -62.94629 22984 ft 401 kts 165°
2026-04-23 14:58 8.96815 -62.93886 22977 ft 402 kts 165°
2026-04-23 14:58 8.94122 -62.93143 22985 ft 401 kts 166°
2026-04-23 14:58 8.91422 -62.92399 22982 ft 402 kts 166°
2026-04-23 14:58 8.88729 -62.91656 22978 ft 401 kts 165°
2026-04-23 14:59 8.86036 -62.90914 22979 ft 401 kts 166°
2026-04-23 14:59 8.83345 -62.90173 22979 ft 401 kts 165°
2026-04-23 14:59 8.80651 -62.89431 22975 ft 401 kts 165°
2026-04-23 14:59 8.77958 -62.88689 22980 ft 401 kts 166°
2026-04-23 15:00 8.75265 -62.87946 22976 ft 401 kts 165°
2026-04-23 15:00 8.72575 -62.87205 22978 ft 401 kts 165°
2026-04-23 15:00 8.69878 -62.86462 22983 ft 401 kts 165°
2026-04-23 15:00 8.67210 -62.85728 22981 ft 402 kts 165°
2026-04-23 15:01 8.64511 -62.84985 22981 ft 402 kts 165°
2026-04-23 15:01 8.61810 -62.84242 22977 ft 403 kts 165°
2026-04-23 15:01 8.59108 -62.83498 22977 ft 403 kts 165°
2026-04-23 15:01 8.56402 -62.82754 22977 ft 403 kts 165°
2026-04-23 15:02 8.53695 -62.82009 22975 ft 403 kts 165°
2026-04-23 15:02 8.50987 -62.81264 22974 ft 403 kts 165°
2026-04-23 15:02 8.48278 -62.80519 22979 ft 404 kts 165°
2026-04-23 15:02 8.45560 -62.79771 22976 ft 404 kts 165°
2026-04-23 15:03 8.42848 -62.79025 22973 ft 404 kts 165°
2026-04-23 15:03 8.40137 -62.78280 22970 ft 404 kts 165°
2026-04-23 15:03 8.37424 -62.77533 22972 ft 404 kts 165°
2026-04-23 15:03 8.34714 -62.76789 22976 ft 404 kts 165°
2026-04-23 15:04 8.32006 -62.76044 22981 ft 404 kts 165°
2026-04-23 15:04 8.29285 -62.75457 22972 ft 404 kts 173°
2026-04-23 15:04 8.26482 -62.75332 22981 ft 403 kts 182°
2026-04-23 15:04 8.23683 -62.75451 22984 ft 403 kts 183°
2026-04-23 15:05 8.20881 -62.75608 22969 ft 403 kts 183°
2026-04-23 15:05 8.18073 -62.75771 22974 ft 403 kts 183°
2026-04-23 15:05 8.15271 -62.75929 22976 ft 403 kts 183°
2026-04-23 15:05 8.12466 -62.76078 22979 ft 403 kts 183°
2026-04-23 15:06 8.09658 -62.76221 22977 ft 403 kts 182°
2026-04-23 15:06 8.06852 -62.76358 22975 ft 404 kts 182°
2026-04-23 15:06 8.04047 -62.76493 22979 ft 404 kts 182°
2026-04-23 15:06 8.01242 -62.76626 22980 ft 404 kts 182°
2026-04-23 15:07 7.98430 -62.76758 22983 ft 404 kts 182°
2026-04-23 15:07 7.95617 -62.76891 22981 ft 405 kts 182°
2026-04-23 15:07 7.92801 -62.77023 22980 ft 405 kts 182°
2026-04-23 15:07 7.89992 -62.77156 22985 ft 405 kts 182°
2026-04-23 15:08 7.87177 -62.77288 22979 ft 405 kts 182°
2026-04-23 15:08 7.84362 -62.77421 22977 ft 405 kts 182°
2026-04-23 15:08 7.81586 -62.77552 22989 ft 405 kts 182°
2026-04-23 15:09 7.75958 -62.77817 22981 ft 404 kts 182°
2026-04-23 15:09 7.73144 -62.77950 22983 ft 404 kts 182°
2026-04-23 15:09 7.70335 -62.78083 22984 ft 404 kts 182°
2026-04-23 15:09 7.67517 -62.78215 22986 ft 404 kts 182°
2026-04-23 15:10 7.65621 -62.78305 22986 ft 404 kts 182°
2026-04-23 15:10 7.61900 -62.78480 22983 ft 404 kts 182°
2026-04-23 15:10 7.59090 -62.78613 22986 ft 405 kts 182°
2026-04-23 15:10 7.56278 -62.78745 22984 ft 405 kts 182°
2026-04-23 15:11 7.53461 -62.78878 22987 ft 405 kts 182°
2026-04-23 15:11 7.50646 -62.79010 22986 ft 405 kts 182°
2026-04-23 15:11 7.47833 -62.79143 22986 ft 405 kts 182°
2026-04-23 15:11 7.45016 -62.79275 22987 ft 404 kts 182°
2026-04-23 15:12 7.42207 -62.79408 22986 ft 404 kts 182°
2026-04-23 15:12 7.39395 -62.79540 22986 ft 404 kts 182°
2026-04-23 15:12 7.36584 -62.79672 22981 ft 404 kts 182°
2026-04-23 15:12 7.33813 -62.79803 22982 ft 403 kts 182°
2026-04-23 15:13 7.31005 -62.79935 22986 ft 403 kts 182°
2026-04-23 15:13 7.28199 -62.80067 22988 ft 403 kts 182°
2026-04-23 15:13 7.25397 -62.80199 22987 ft 403 kts 182°
2026-04-23 15:13 7.22595 -62.80331 22986 ft 403 kts 182°
2026-04-23 15:14 7.19789 -62.80463 22981 ft 403 kts 182°
2026-04-23 15:14 7.17026 -62.80593 22981 ft 402 kts 182°
2026-04-23 15:14 7.14192 -62.80726 22986 ft 402 kts 182°
2026-04-23 15:14 7.11432 -62.80856 22969 ft 399 kts 182°
2026-04-23 15:15 7.08657 -62.80993 22422 ft 400 kts 183°
2026-04-23 15:15 7.05895 -62.81146 21863 ft 395 kts 184°
2026-04-23 15:15 7.03161 -62.81304 21317 ft 391 kts 184°
2026-04-23 15:15 7.00466 -62.81461 20755 ft 387 kts 184°
2026-04-23 15:16 6.97792 -62.81617 20214 ft 383 kts 184°
2026-04-23 15:16 6.95145 -62.81770 19679 ft 379 kts 184°
2026-04-23 15:16 6.92518 -62.81921 19130 ft 376 kts 184°
2026-04-23 15:16 6.89909 -62.82070 18577 ft 374 kts 184°
2026-04-23 15:17 6.87323 -62.82217 17994 ft 371 kts 184°
2026-04-23 15:17 6.84754 -62.82363 17407 ft 368 kts 184°
2026-04-23 15:17 6.82218 -62.82507 16850 ft 364 kts 184°
2026-04-23 15:17 6.79705 -62.82650 16312 ft 359 kts 184°
2026-04-23 15:18 6.77223 -62.82791 15779 ft 356 kts 184°
2026-04-23 15:18 6.74795 -62.82929 15262 ft 352 kts 184°
2026-04-23 15:18 6.72356 -62.83068 14747 ft 349 kts 184°
2026-04-23 15:18 6.69934 -62.83205 14218 ft 347 kts 184°
2026-04-23 15:19 6.67533 -62.83342 13676 ft 345 kts 184°
2026-04-23 15:19 6.65140 -62.83478 13105 ft 343 kts 184°
2026-04-23 15:19 6.62774 -62.83612 12556 ft 340 kts 184°
2026-04-23 15:19 6.60422 -62.83746 12033 ft 336 kts 184°
2026-04-23 15:20 6.58881 -62.83834 11692 ft 334 kts 184°
2026-04-23 15:20 6.55794 -62.84009 11019 ft 330 kts 183°
2026-04-23 15:20 6.53514 -62.84138 10524 ft 328 kts 183°
2026-04-23 15:20 6.51267 -62.84266 10298 ft 316 kts 183°
2026-04-23 15:21 6.49109 -62.84388 10144 ft 304 kts 184°
2026-04-23 15:21 6.47035 -62.84506 10000 ft 292 kts 183°
2026-04-23 15:21 6.45047 -62.84619 9924 ft 279 kts 183°
2026-04-23 15:21 6.43072 -62.84731 9336 ft 285 kts 183°
2026-04-23 15:22 6.41095 -62.84843 8886 ft 284 kts 183°
2026-04-23 15:22 6.39130 -62.84955 8502 ft 282 kts 183°
2026-04-23 15:22 6.37202 -62.85065 8138 ft 280 kts 183°
2026-04-23 15:22 6.35264 -62.85175 7789 ft 278 kts 182°
2026-04-23 15:23 6.33336 -62.85284 7415 ft 277 kts 182°
2026-04-23 15:23 6.31419 -62.85393 7053 ft 275 kts 182°
2026-04-23 15:23 6.29520 -62.85501 6811 ft 269 kts 182°
2026-04-23 15:23 6.27661 -62.85607 6645 ft 260 kts 182°
2026-04-23 15:24 6.25905 -62.85706 6546 ft 252 kts 182°
2026-04-23 15:24 6.24175 -62.85878 6409 ft 246 kts 189°
2026-04-23 15:24 6.22531 -62.86253 6292 ft 238 kts 192°
2026-04-23 15:24 6.20946 -62.86646 6171 ft 231 kts 192°
2026-04-23 15:25 6.19379 -62.87023 5925 ft 232 kts 192°
2026-04-23 15:25 6.17803 -62.87393 5652 ft 233 kts 191°
2026-04-23 15:25 6.16762 -62.87633 5499 ft 229 kts 192°
2026-04-23 15:25 6.14740 -62.88096 5197 ft 217 kts 191°
2026-04-23 15:26 6.13281 -62.88419 4914 ft 210 kts 186°
2026-04-23 15:26 6.12342 -62.88327 4765 ft 204 kts 156°
2026-04-23 15:26 6.11390 -62.87368 4538 ft 194 kts 112°
2026-04-23 15:26 6.11245 -62.86076 4310 ft 186 kts 77°
2026-04-23 15:27 6.11908 -62.85005 3981 ft 181 kts 38°
2026-04-23 15:27 6.13032 -62.84561 3728 ft 173 kts
2026-04-23 15:27 6.14167 -62.84701 3581 ft 159 kts 353°
2026-04-23 15:27 6.15243 -62.84792 3385 ft 150 kts 356°
2026-04-23 15:28 6.16288 -62.84847 3178 ft 150 kts 356°
2026-04-23 15:28 6.17328 -62.84895 2830 ft 149 kts 358°
2026-04-23 15:28 6.18354 -62.84955 2523 ft 148 kts 354°
2026-04-23 15:28 6.19383 -62.85061 2166 ft 148 kts 353°
2026-04-23 15:29 6.20388 -62.85177 1821 ft 141 kts 353°
2026-04-23 15:29 6.21348 -62.85286 1573 ft 136 kts 352°
2026-04-23 15:29 6.22271 -62.85384 1361 ft 130 kts 353°
2026-04-23 15:29 6.23068 -62.85468 1545 ft 133 kts 354°